TAY6SL ENGM-ESGG

Flight info

Callsign TAY6SL
Flight time 0h 34m
Altitude 31000
Route OKSAT L996 KELIN
Aircraft B738/M-SDE2E3FGHIRWXY/LB1

Departure

Time 2026-05-06 16:49
Airport Oslo-Gardermoen International Airport (ENGM)

Arrival

Time 2026-05-06 17:24
Airport Göteborg Landvetter Airport (ESGG)
Time Latitude Longitude Altitude Speed Heading
2026-05-06 16:17 60.19205 11.08528 689 ft 0 kts 106°
2026-05-06 16:40 60.19207 11.08514 682 ft 4 kts 105°
2026-05-06 16:40 60.19213 11.08461 683 ft 4 kts 98°
2026-05-06 16:40 60.19215 11.08408 681 ft 4 kts 85°
2026-05-06 16:40 60.19209 11.08360 684 ft 4 kts 44°
2026-05-06 16:41 60.19200 11.08347 682 ft 1 kts 15°
2026-05-06 16:44 60.19209 11.08352 682 ft 5 kts 15°
2026-05-06 16:44 60.19268 11.08386 687 ft 12 kts 16°
2026-05-06 16:45 60.19365 11.08442 689 ft 17 kts 16°
2026-05-06 16:45 60.19498 11.08519 689 ft 22 kts 16°
2026-05-06 16:45 60.19652 11.08604 689 ft 21 kts 16°
2026-05-06 16:45 60.19802 11.08692 689 ft 25 kts 15°
2026-05-06 16:46 60.19981 11.08792 687 ft 28 kts 16°
2026-05-06 16:46 60.20163 11.08896 689 ft 24 kts 15°
2026-05-06 16:46 60.20337 11.08997 682 ft 28 kts 15°
2026-05-06 16:46 60.20520 11.09100 685 ft 20 kts 16°
2026-05-06 16:47 60.20670 11.09185 689 ft 24 kts 15°
2026-05-06 16:47 60.20845 11.09285 687 ft 28 kts 16°
2026-05-06 16:47 60.21031 11.09391 688 ft 23 kts 16°
2026-05-06 16:47 60.21197 11.09487 687 ft 27 kts 15°
2026-05-06 16:48 60.21378 11.09590 689 ft 21 kts 16°
2026-05-06 16:48 60.21516 11.09587 689 ft 20 kts 320°
2026-05-06 16:48 60.21563 11.09353 688 ft 15 kts 286°
2026-05-06 16:48 60.21565 11.09178 683 ft 15 kts 245°
2026-05-06 16:49 60.21488 11.09092 682 ft 8 kts 196°
2026-05-06 16:49 60.21394 11.09038 689 ft 38 kts 196°
2026-05-06 16:49 60.20721 11.08647 700 ft 157 kts 200°
2026-05-06 16:49 60.19509 11.07968 1582 ft 205 kts 199°
2026-05-06 16:50 60.18105 11.07179 3177 ft 199 kts 198°
2026-05-06 16:50 60.16893 11.06210 5033 ft 175 kts 226°
2026-05-06 16:50 60.16163 11.04192 6301 ft 185 kts 243°
2026-05-06 16:50 60.15750 11.02602 6667 ft 203 kts 247°
2026-05-06 16:51 60.14894 10.98832 6992 ft 240 kts 246°
2026-05-06 16:51 60.14274 10.96956 6985 ft 244 kts 228°
2026-05-06 16:51 60.12828 10.95211 6998 ft 250 kts 199°
2026-05-06 16:51 60.11068 10.95125 6993 ft 259 kts 168°
2026-05-06 16:52 60.09404 10.96502 7029 ft 262 kts 156°
2026-05-06 16:52 60.07752 10.98182 7566 ft 266 kts 155°
2026-05-06 16:52 60.06096 10.99898 8521 ft 278 kts 155°
2026-05-06 16:52 60.04334 11.01727 9674 ft 286 kts 155°
2026-05-06 16:53 60.02556 11.03579 10656 ft 299 kts 155°
2026-05-06 16:53 60.00569 11.05645 11253 ft 325 kts 155°
2026-05-06 16:53 59.98546 11.07753 12208 ft 335 kts 155°
2026-05-06 16:53 59.96481 11.09935 13283 ft 342 kts 155°
2026-05-06 16:54 59.94340 11.12238 14294 ft 350 kts 155°
2026-05-06 16:54 59.92190 11.14624 15276 ft 357 kts 155°
2026-05-06 16:54 59.89973 11.16812 16212 ft 358 kts 167°
2026-05-06 16:54 59.87566 11.18271 17218 ft 360 kts 172°
2026-05-06 16:55 59.85149 11.19548 18210 ft 365 kts 174°
2026-05-06 16:55 59.82646 11.20838 19056 ft 370 kts 175°
2026-05-06 16:55 59.80164 11.22132 19878 ft 375 kts 175°
2026-05-06 16:55 59.77602 11.23492 20566 ft 382 kts 176°
2026-05-06 16:56 59.75056 11.24872 20891 ft 384 kts 176°
2026-05-06 16:56 59.72456 11.26299 20927 ft 387 kts 176°
2026-05-06 16:56 59.69871 11.27740 20908 ft 380 kts 175°
2026-05-06 16:56 59.67398 11.29138 20913 ft 372 kts 176°
2026-05-06 16:57 59.64831 11.30554 21022 ft 391 kts 176°
2026-05-06 16:57 59.62114 11.32026 21300 ft 410 kts 175°
2026-05-06 16:57 59.59218 11.33604 21792 ft 422 kts 175°
2026-05-06 16:57 59.56346 11.35189 22448 ft 429 kts 175°
2026-05-06 16:58 59.53497 11.36776 23256 ft 430 kts 175°
2026-05-06 16:58 59.50567 11.38416 24152 ft 426 kts 175°
2026-05-06 16:58 59.47711 11.40014 25058 ft 421 kts 175°
2026-05-06 16:58 59.44898 11.41580 25972 ft 417 kts 175°
2026-05-06 16:59 59.42105 11.43123 26796 ft 415 kts 175°
2026-05-06 16:59 59.39306 11.44658 27625 ft 413 kts 175°
2026-05-06 16:59 59.36556 11.46160 28449 ft 411 kts 175°
2026-05-06 16:59 59.33807 11.47659 29312 ft 408 kts 175°
2026-05-06 17:00 59.31045 11.49165 30152 ft 404 kts 175°
2026-05-06 17:00 59.28462 11.50570 30734 ft 403 kts 175°
2026-05-06 17:00 59.25759 11.52039 30897 ft 396 kts 175°
2026-05-06 17:00 59.23178 11.53456 30910 ft 380 kts 176°
2026-05-06 17:01 59.20673 11.54834 30917 ft 366 kts 176°
2026-05-06 17:01 59.18270 11.56148 30923 ft 352 kts 177°
2026-05-06 17:01 59.15956 11.57409 30857 ft 336 kts 178°
2026-05-06 17:01 59.13742 11.58611 30666 ft 324 kts 178°
2026-05-06 17:02 59.11611 11.59753 30324 ft 318 kts 179°
2026-05-06 17:02 59.09467 11.60888 29780 ft 318 kts 179°
2026-05-06 17:02 59.07339 11.62010 29172 ft 319 kts 179°
2026-05-06 17:02 59.05152 11.63154 28307 ft 331 kts 178°
2026-05-06 17:03 59.02791 11.64358 27496 ft 366 kts 177°
2026-05-06 17:03 59.00232 11.65671 26665 ft 382 kts 176°
2026-05-06 17:03 58.97647 11.67051 25687 ft 384 kts 175°
2026-05-06 17:03 58.95075 11.68447 24771 ft 384 kts 175°
2026-05-06 17:04 58.92498 11.69849 23921 ft 381 kts 175°
2026-05-06 17:04 58.89974 11.71217 23073 ft 376 kts 175°
2026-05-06 17:04 58.87488 11.72556 22214 ft 371 kts 175°
2026-05-06 17:04 58.85064 11.73852 21579 ft 367 kts 175°
2026-05-06 17:05 58.82556 11.75183 21041 ft 364 kts 176°
2026-05-06 17:05 58.80123 11.76469 20545 ft 361 kts 176°
2026-05-06 17:05 58.77703 11.77746 20065 ft 358 kts 176°
2026-05-06 17:05 58.75333 11.78994 19590 ft 355 kts 176°
2026-05-06 17:06 58.72941 11.80251 19120 ft 352 kts 176°
2026-05-06 17:06 58.70607 11.81475 18672 ft 350 kts 176°
2026-05-06 17:06 58.68265 11.82702 18209 ft 348 kts 176°
2026-05-06 17:06 58.65908 11.83935 17666 ft 346 kts 175°
2026-05-06 17:07 58.63587 11.85148 17184 ft 343 kts 175°
2026-05-06 17:07 58.61292 11.86347 16709 ft 340 kts 175°
2026-05-06 17:07 58.59028 11.87528 16249 ft 337 kts 174°
2026-05-06 17:07 58.56790 11.88694 15803 ft 334 kts 174°
2026-05-06 17:08 58.54536 11.89867 15364 ft 331 kts 174°
2026-05-06 17:08 58.52306 11.91026 14921 ft 329 kts 174°
2026-05-06 17:08 58.50108 11.92167 14624 ft 325 kts 174°
2026-05-06 17:08 58.47947 11.93286 14339 ft 323 kts 174°
2026-05-06 17:09 58.45770 11.94412 13963 ft 320 kts 173°
2026-05-06 17:09 58.43616 11.95525 13489 ft 318 kts 173°
2026-05-06 17:09 58.41499 11.96616 13009 ft 316 kts 173°
2026-05-06 17:09 58.39368 11.97714 12537 ft 314 kts 172°
2026-05-06 17:10 58.37276 11.98791 12084 ft 312 kts 172°
2026-05-06 17:10 58.35167 11.99875 11647 ft 310 kts 172°
2026-05-06 17:10 58.33077 12.00949 11188 ft 308 kts 171°
2026-05-06 17:10 58.31034 12.01998 10754 ft 306 kts 171°
2026-05-06 17:11 58.28975 12.03053 10313 ft 305 kts 170°
2026-05-06 17:11 58.26942 12.04096 10153 ft 297 kts 170°
2026-05-06 17:11 58.24929 12.05127 10025 ft 305 kts 169°
2026-05-06 17:11 58.23577 12.06043 9918 ft 319 kts 160°
2026-05-06 17:12 58.21578 12.08087 9509 ft 325 kts 153°
2026-05-06 17:12 58.19642 12.10341 9090 ft 326 kts 152°
2026-05-06 17:12 58.17702 12.12572 8719 ft 322 kts 153°
2026-05-06 17:12 58.15797 12.14687 8339 ft 317 kts 153°
2026-05-06 17:13 58.13923 12.16726 7819 ft 307 kts 153°
2026-05-06 17:13 58.12107 12.18691 7445 ft 292 kts 153°
2026-05-06 17:13 58.10402 12.20529 7171 ft 276 kts 153°
2026-05-06 17:13 58.09286 12.21730 6953 ft 268 kts 154°
2026-05-06 17:14 58.09277 12.21739 6952 ft 268 kts 154°
2026-05-06 17:14 58.08055 12.23050 6705 ft 261 kts 153°
2026-05-06 17:14 58.06493 12.24726 6387 ft 252 kts 153°
2026-05-06 17:14 58.04999 12.26329 6088 ft 246 kts 153°
2026-05-06 17:15 58.03556 12.27878 5813 ft 232 kts 153°
2026-05-06 17:15 58.02180 12.29354 5498 ft 220 kts 152°
2026-05-06 17:15 58.00878 12.30751 5219 ft 210 kts 153°
2026-05-06 17:15 57.99616 12.32100 4970 ft 205 kts 152°
2026-05-06 17:16 57.98389 12.33384 4716 ft 202 kts 156°
2026-05-06 17:16 57.97124 12.34330 4638 ft 189 kts 162°
2026-05-06 17:16 57.95896 12.35146 4566 ft 184 kts 163°
2026-05-06 17:16 57.94732 12.35923 4490 ft 173 kts 163°
2026-05-06 17:17 57.93623 12.36671 4420 ft 165 kts 163°
2026-05-06 17:17 57.92513 12.37419 4398 ft 179 kts 163°
2026-05-06 17:17 57.91304 12.38243 4316 ft 183 kts 162°
2026-05-06 17:17 57.90110 12.39062 4198 ft 174 kts 162°
2026-05-06 17:18 57.89015 12.39814 4110 ft 163 kts 163°
2026-05-06 17:18 57.87978 12.40526 4024 ft 154 kts 162°
2026-05-06 17:18 57.86957 12.41159 3928 ft 158 kts 174°
2026-05-06 17:18 57.85853 12.41254 3829 ft 160 kts 181°
2026-05-06 17:19 57.84738 12.41358 3676 ft 163 kts 180°
2026-05-06 17:19 57.83597 12.41478 3514 ft 163 kts 180°
2026-05-06 17:19 57.82455 12.41601 3368 ft 161 kts 180°
2026-05-06 17:19 57.81394 12.41376 3239 ft 154 kts 208°
2026-05-06 17:20 57.80428 12.40552 3086 ft 155 kts 201°
2026-05-06 17:20 57.79414 12.39912 3020 ft 154 kts 207°
2026-05-06 17:20 57.78439 12.39057 2961 ft 155 kts 210°
2026-05-06 17:20 57.77448 12.38155 2722 ft 160 kts 209°
2026-05-06 17:21 57.76479 12.37273 2514 ft 151 kts 209°
2026-05-06 17:21 57.75559 12.36433 2356 ft 148 kts 210°
2026-05-06 17:21 57.74630 12.35590 2132 ft 145 kts 209°
2026-05-06 17:21 57.73772 12.34809 1917 ft 132 kts 210°
2026-05-06 17:22 57.72949 12.34062 1743 ft 127 kts 210°
2026-05-06 17:22 57.72167 12.33343 1568 ft 125 kts 210°
2026-05-06 17:22 57.71369 12.32619 1395 ft 127 kts 210°
2026-05-06 17:22 57.70577 12.31883 1194 ft 129 kts 211°
2026-05-06 17:23 57.69775 12.31160 1005 ft 127 kts 210°
2026-05-06 17:23 57.68966 12.30431 841 ft 132 kts 211°
2026-05-06 17:23 57.68155 12.29693 666 ft 130 kts 211°
2026-05-06 17:23 57.67323 12.28932 515 ft 120 kts 208°
2026-05-06 17:24 57.66704 12.28362 511 ft 73 kts 206°
2026-05-06 17:24 57.66376 12.28063 510 ft 35 kts 206°
2026-05-06 17:24 57.66229 12.27932 509 ft 16 kts 200°
2026-05-06 17:24 57.66165 12.27927 508 ft 7 kts 156°
2026-05-06 17:25 57.66128 12.28007 507 ft 8 kts 122°
2026-05-06 17:25 57.66110 12.28070 508 ft 6 kts 115°
2026-05-06 17:25 57.66109 12.28135 508 ft 0 kts 67°
2026-05-06 17:25 57.66114 12.28154 508 ft 5 kts 61°
2026-05-06 17:26 57.66153 12.28211 509 ft 10 kts 25°
2026-05-06 17:26 57.66219 12.28266 509 ft 11 kts 24°
2026-05-06 17:26 57.66278 12.28322 510 ft 9 kts 26°
2026-05-06 17:26 57.66347 12.28384 510 ft 14 kts 26°
2026-05-06 17:27 57.66426 12.28456 511 ft 14 kts 26°
2026-05-06 17:27 57.66523 12.28544 511 ft 17 kts 26°
2026-05-06 17:27 57.66649 12.28658 511 ft 23 kts 26°
2026-05-06 17:27 57.66753 12.28754 512 ft 16 kts 26°
2026-05-06 17:28 57.66875 12.28865 512 ft 22 kts 26°
2026-05-06 17:28 57.67019 12.28996 513 ft 22 kts 26°
2026-05-06 17:28 57.67154 12.29118 513 ft 18 kts 26°
2026-05-06 17:28 57.67250 12.29212 514 ft 12 kts 43°
2026-05-06 17:29 57.67239 12.29379 515 ft 15 kts 115°
2026-05-06 17:29 57.67205 12.29527 515 ft 10 kts 108°
2026-05-06 17:29 57.67186 12.29610 515 ft 7 kts 115°
2026-05-06 17:29 57.67175 12.29651 515 ft 1 kts 116°
2026-05-06 17:30 57.67173 12.29659 515 ft 0 kts 116°